Zurück zum Katalog

FENGYUN 1C DEB

AktivSSO
NORAD 30675·DEBRIS·🇨🇳 China

Gestartet May 10, 1999 von Taiyuan Satellite Launch Center

Loading…

Nächste Überflüge (nächste 24 Stunden)

TLE

AktuellSource: Space-Track

Epoche: Sep 14, 2026, 04:31 UTC

1 30675U 99025AQH 26257.18866329  .00001979  00000-0  78548-3 0  9992
2 30675  98.7436 341.9170 0052079  85.8169 304.8442 14.29161419  8220

Verfolge FENGYUN 1C DEB in Echtzeit mit AllMySat

Download on the App Store